Location: Roanoke
(37.2710°N, 79.9420°W)
Time: 10:57:16
(UTC-05:00)

S-56A Canister/Altair - Pass Details

Date: 26 November 2019
Orbit: 633 x 2499 km, 38.9° (Epoch: 11 December)

Event Time Altitude Azimuth Distance (km) Brightness Sun altitude
Rises 12:15:33 0° 204° (SSW) 6,153 13.1 31.7°
Reaches altitude 10° 12:20:17 10° 195° (SSW) 5,147 13.2 31.7°
Maximum altitude 12:32:26 32° 141° (SE) 3,403 11.8 31.4°
Drops below altitude 10° 12:42:35 10° 85° (E) 4,303 11.3 31.1°
Sets 12:46:04 0° 75° (ENE) 5,046 11.5 31.0°
